VJH812 LIRQ-LIMC

Flight info

Callsign VJH812
Flight time 1h 23m
Altitude 34000
Route MIVKI DCT MEBUR
Aircraft E190/M-SDE1E2E3FGHIJ3J4J7P2RWXY/LB1D1G1

Departure

Time 2026-05-05 20:32
Airport Florence Airport, Peretola (LIRQ)

Arrival

Time 2026-05-05 21:55
Airport Milan Malpensa International Airport (LIMC)
Time Latitude Longitude Altitude Speed Heading
2026-05-05 20:13 43.80658 11.19565 132 ft 0 kts 268°
2026-05-05 20:26 43.80658 11.19562 132 ft 1 kts 272°
2026-05-05 20:27 43.80665 11.19549 132 ft 2 kts 339°
2026-05-05 20:27 43.80681 11.19568 132 ft 4 kts 51°
2026-05-05 20:27 43.80685 11.19595 132 ft 3 kts 104°
2026-05-05 20:27 43.80667 11.19638 132 ft 6 kts 131°
2026-05-05 20:28 43.80628 11.19689 132 ft 8 kts 138°
2026-05-05 20:28 43.80576 11.19752 132 ft 10 kts 138°
2026-05-05 20:28 43.80573 11.19840 133 ft 11 kts 51°
2026-05-05 20:28 43.80637 11.19939 132 ft 15 kts 48°
2026-05-05 20:29 43.80712 11.20055 132 ft 17 kts 49°
2026-05-05 20:29 43.80798 11.20188 132 ft 19 kts 48°
2026-05-05 20:29 43.80893 11.20334 132 ft 21 kts 48°
2026-05-05 20:29 43.80997 11.20495 132 ft 23 kts 48°
2026-05-05 20:30 43.81105 11.20661 135 ft 23 kts 48°
2026-05-05 20:30 43.81219 11.20838 136 ft 25 kts 49°
2026-05-05 20:30 43.81337 11.21020 138 ft 25 kts 49°
2026-05-05 20:30 43.81441 11.21181 139 ft 13 kts 49°
2026-05-05 20:31 43.81475 11.21261 139 ft 5 kts 76°
2026-05-05 20:31 43.81498 11.21320 138 ft 6 kts 49°
2026-05-05 20:31 43.81527 11.21326 140 ft 3 kts 290°
2026-05-05 20:31 43.81519 11.21298 140 ft 3 kts 225°
2026-05-05 20:32 43.81463 11.21217 139 ft 44 kts 227°
2026-05-05 20:32 43.81031 11.20549 134 ft 140 kts 227°
2026-05-05 20:32 43.80278 11.19380 617 ft 177 kts 226°
2026-05-05 20:32 43.79416 11.18328 1577 ft 160 kts 213°
2026-05-05 20:33 43.78726 11.16944 2083 ft 193 kts 256°
2026-05-05 20:33 43.78919 11.15068 2665 ft 213 kts 287°
2026-05-05 20:33 43.79415 11.13078 3325 ft 230 kts 284°
2026-05-05 20:33 43.79871 11.10948 4310 ft 236 kts 282°
2026-05-05 20:34 43.80286 11.08824 5539 ft 230 kts 281°
2026-05-05 20:34 43.80667 11.06749 6719 ft 226 kts 280°
2026-05-05 20:34 43.81176 11.04736 7757 ft 232 kts 302°
2026-05-05 20:34 43.82474 11.03422 8700 ft 248 kts 339°
2026-05-05 20:35 43.84150 11.02845 9693 ft 253 kts 342°
2026-05-05 20:35 43.85842 11.02275 10701 ft 256 kts 342°
2026-05-05 20:35 43.87588 11.01674 11715 ft 259 kts 341°
2026-05-05 20:35 43.89324 11.01069 12701 ft 263 kts 341°
2026-05-05 20:36 43.91081 11.00452 13698 ft 266 kts 340°
2026-05-05 20:36 43.92872 10.99822 14675 ft 270 kts 340°
2026-05-05 20:36 43.94520 10.98756 15516 ft 265 kts 314°
2026-05-05 20:36 43.95870 10.96793 15630 ft 299 kts 306°
2026-05-05 20:37 43.97323 10.94500 15805 ft 333 kts 306°
2026-05-05 20:37 43.98879 10.92052 16410 ft 350 kts 307°
2026-05-05 20:37 44.00505 10.89499 17396 ft 354 kts 307°
2026-05-05 20:37 44.02121 10.86955 18456 ft 355 kts 306°
2026-05-05 20:38 44.03748 10.84391 19434 ft 357 kts 306°
2026-05-05 20:38 44.05380 10.81818 20293 ft 362 kts 307°
2026-05-05 20:38 44.07041 10.79193 21093 ft 368 kts 306°
2026-05-05 20:38 44.08751 10.76492 21884 ft 374 kts 306°
2026-05-05 20:39 44.10465 10.73779 22667 ft 379 kts 306°
2026-05-05 20:39 44.12197 10.71036 23441 ft 383 kts 306°
2026-05-05 20:39 44.13959 10.68245 24180 ft 387 kts 306°
2026-05-05 20:39 44.15733 10.65423 25007 ft 388 kts 304°
2026-05-05 20:40 44.17007 10.62227 25798 ft 373 kts 281°
2026-05-05 20:40 44.17489 10.58736 26652 ft 367 kts 274°
2026-05-05 20:40 44.17848 10.55276 27403 ft 367 kts 273°
2026-05-05 20:40 44.18193 10.51792 28140 ft 368 kts 273°
2026-05-05 20:41 44.18538 10.48240 28894 ft 368 kts 273°
2026-05-05 20:41 44.18876 10.44731 29626 ft 368 kts 273°
2026-05-05 20:41 44.19207 10.41271 29945 ft 356 kts 273°
2026-05-05 20:42 44.19856 10.34435 29997 ft 360 kts 272°
2026-05-05 20:42 44.20512 10.27489 30001 ft 365 kts 272°
2026-05-05 20:43 44.21172 10.20458 30001 ft 371 kts 272°
2026-05-05 20:43 44.21841 10.13285 29996 ft 375 kts 272°
2026-05-05 20:44 44.23264 10.06188 29986 ft 391 kts 290°
2026-05-05 20:44 44.24683 10.02949 29983 ft 402 kts 299°
2026-05-05 20:44 44.26560 9.99961 29981 ft 410 kts 305°
2026-05-05 20:45 44.32126 9.90970 29971 ft 412 kts 302°
2026-05-05 20:45 44.35833 9.84812 29516 ft 413 kts 302°
2026-05-05 20:46 44.37661 9.81765 29075 ft 412 kts 302°
2026-05-05 20:46 44.39504 9.78693 28615 ft 409 kts 303°
2026-05-05 20:46 44.41318 9.75662 28171 ft 409 kts 303°
2026-05-05 20:46 44.43141 9.72615 27716 ft 408 kts 303°
2026-05-05 20:47 44.44927 9.69628 27273 ft 404 kts 303°
2026-05-05 20:47 44.46727 9.66611 26833 ft 406 kts 303°
2026-05-05 20:47 44.48523 9.63601 26384 ft 404 kts 303°
2026-05-05 20:47 44.50312 9.60601 25888 ft 390 kts 303°
2026-05-05 20:48 44.51974 9.57813 25501 ft 367 kts 303°
2026-05-05 20:48 44.53583 9.55108 25111 ft 351 kts 302°
2026-05-05 20:48 44.55130 9.52496 24750 ft 352 kts 302°
2026-05-05 20:48 44.56708 9.49834 24361 ft 356 kts 303°
2026-05-05 20:49 44.58293 9.47159 23967 ft 359 kts 303°
2026-05-05 20:49 44.59862 9.44512 23598 ft 360 kts 303°
2026-05-05 20:49 44.61462 9.41809 23177 ft 358 kts 303°
2026-05-05 20:49 44.63034 9.39153 22779 ft 353 kts 303°
2026-05-05 20:50 44.64582 9.36531 22393 ft 348 kts 303°
2026-05-05 20:50 44.66124 9.33919 22009 ft 346 kts 302°
2026-05-05 20:50 44.67641 9.31345 21632 ft 343 kts 302°
2026-05-05 20:50 44.69165 9.28758 21255 ft 342 kts 302°
2026-05-05 20:51 44.70657 9.26223 20881 ft 340 kts 302°
2026-05-05 20:51 44.72156 9.23673 20505 ft 338 kts 303°
2026-05-05 20:51 44.73643 9.21147 20378 ft 328 kts 303°
2026-05-05 20:51 44.75021 9.18881 21344 ft 305 kts 304°
2026-05-05 20:52 44.76555 9.16864 21334 ft 296 kts 320°
2026-05-05 20:52 44.78460 9.15942 21315 ft 297 kts 354°
2026-05-05 20:52 44.80440 9.16538 21164 ft 294 kts 29°
2026-05-05 20:52 44.81884 9.18492 20936 ft 282 kts 68°
2026-05-05 20:53 44.82284 9.21096 20799 ft 280 kts 105°
2026-05-05 20:53 44.81565 9.23602 20739 ft 282 kts 139°
2026-05-05 20:53 44.80051 9.25248 20194 ft 280 kts 157°
2026-05-05 20:53 44.78369 9.26757 19295 ft 296 kts 153°
2026-05-05 20:54 44.76632 9.28397 18354 ft 308 kts 153°
2026-05-05 20:54 44.74815 9.30078 17468 ft 316 kts 152°
2026-05-05 20:54 44.72973 9.31749 16780 ft 317 kts 153°
2026-05-05 20:54 44.71052 9.33103 16175 ft 305 kts 172°
2026-05-05 20:55 44.69030 9.33008 15602 ft 289 kts 201°
2026-05-05 20:55 44.67415 9.31474 15041 ft 282 kts 231°
2026-05-05 20:55 44.66669 9.29006 14473 ft 284 kts 261°
2026-05-05 20:55 44.67036 9.26252 14056 ft 302 kts 294°
2026-05-05 20:56 44.68450 9.24050 14010 ft 312 kts 317°
2026-05-05 20:56 44.70121 9.22152 13985 ft 308 kts 314°
2026-05-05 20:56 44.71737 9.20209 13973 ft 305 kts 314°
2026-05-05 20:56 44.73341 9.18274 13967 ft 305 kts 314°
2026-05-05 20:57 44.74962 9.16336 13965 ft 307 kts 317°
2026-05-05 20:57 44.76938 9.15105 13978 ft 320 kts 347°
2026-05-05 20:57 44.79173 9.15352 13987 ft 330 kts 17°
2026-05-05 20:57 44.81104 9.17096 13989 ft 336 kts 47°
2026-05-05 20:58 44.82235 9.19917 13984 ft 333 kts 78°
2026-05-05 20:58 44.82284 9.23099 13986 ft 325 kts 108°
2026-05-05 20:58 44.81265 9.25835 13982 ft 312 kts 139°
2026-05-05 20:58 44.79577 9.27595 13985 ft 306 kts 149°
2026-05-05 20:59 44.77887 9.29461 13963 ft 307 kts 146°
2026-05-05 20:59 44.76230 9.31353 13958 ft 308 kts 146°
2026-05-05 20:59 44.74564 9.33212 13953 ft 304 kts 152°
2026-05-05 20:59 44.72629 9.34132 13971 ft 289 kts 182°
2026-05-05 21:00 44.70725 9.33488 13982 ft 282 kts 213°
2026-05-05 21:00 44.69408 9.31518 13994 ft 279 kts 243°
2026-05-05 21:00 44.68693 9.29007 13995 ft 280 kts 247°
2026-05-05 21:00 44.68011 9.26422 13977 ft 281 kts 251°
2026-05-05 21:01 44.67966 9.23678 13987 ft 290 kts 282°
2026-05-05 21:01 44.69017 9.21229 14002 ft 303 kts 312°
2026-05-05 21:01 44.70794 9.19566 14008 ft 311 kts 325°
2026-05-05 21:01 44.72696 9.18131 13978 ft 312 kts 327°
2026-05-05 21:02 44.74628 9.16710 13979 ft 312 kts 327°
2026-05-05 21:02 44.76533 9.15315 13979 ft 312 kts 327°
2026-05-05 21:02 44.78566 9.14156 13969 ft 320 kts 347°
2026-05-05 21:02 44.80770 9.14412 13993 ft 332 kts 17°
2026-05-05 21:03 44.82712 9.16166 14006 ft 337 kts 47°
2026-05-05 21:03 44.83849 9.19005 14001 ft 334 kts 78°
2026-05-05 21:03 44.83897 9.22185 13998 ft 325 kts 108°
2026-05-05 21:03 44.82872 9.24936 14000 ft 310 kts 139°
2026-05-05 21:04 44.81121 9.26513 14012 ft 297 kts 163°
2026-05-05 21:04 44.79249 9.27784 13985 ft 302 kts 156°
2026-05-05 21:04 44.77424 9.29180 13978 ft 301 kts 156°
2026-05-05 21:04 44.75580 9.30595 13977 ft 300 kts 156°
2026-05-05 21:05 44.73743 9.32010 13978 ft 300 kts 156°
2026-05-05 21:05 44.71906 9.33303 13969 ft 294 kts 169°
2026-05-05 21:05 44.69931 9.33357 13997 ft 281 kts 199°
2026-05-05 21:05 44.68328 9.31952 14010 ft 278 kts 230°
2026-05-05 21:06 44.67533 9.29475 14014 ft 282 kts 261°
2026-05-05 21:06 44.67842 9.26755 14006 ft 293 kts 291°
2026-05-05 21:06 44.69169 9.24538 14011 ft 308 kts 314°
2026-05-05 21:06 44.70696 9.22471 13993 ft 303 kts 308°
2026-05-05 21:07 44.72156 9.20308 13981 ft 302 kts 308°
2026-05-05 21:07 44.73582 9.18182 13974 ft 302 kts 307°
2026-05-05 21:07 44.75029 9.16025 13972 ft 304 kts 307°
2026-05-05 21:07 44.76484 9.13863 13973 ft 304 kts 311°
2026-05-05 21:08 44.78327 9.12389 13978 ft 317 kts 341°
2026-05-05 21:08 44.80563 9.12380 13993 ft 330 kts 12°
2026-05-05 21:08 44.82584 9.13906 13994 ft 335 kts 43°
2026-05-05 21:08 44.83868 9.16605 13997 ft 333 kts 73°
2026-05-05 21:09 44.84091 9.19784 13992 ft 327 kts 103°
2026-05-05 21:09 44.83227 9.22631 13994 ft 314 kts 134°
2026-05-05 21:09 44.81553 9.24415 13992 ft 299 kts 164°
2026-05-05 21:09 44.79581 9.25204 13991 ft 298 kts 166°
2026-05-05 21:10 44.77615 9.26200 13972 ft 299 kts 164°
2026-05-05 21:10 44.75678 9.27202 13967 ft 297 kts 164°
2026-05-05 21:10 44.73757 9.28203 13969 ft 297 kts 165°
2026-05-05 21:10 44.71804 9.29217 13969 ft 294 kts 167°
2026-05-05 21:11 44.69846 9.29383 13978 ft 282 kts 197°
2026-05-05 21:11 44.68163 9.28041 13997 ft 278 kts 228°
2026-05-05 21:11 44.67307 9.25665 13995 ft 282 kts 258°
2026-05-05 21:11 44.67529 9.22892 13995 ft 293 kts 289°
2026-05-05 21:12 44.68811 9.20626 13996 ft 309 kts 319°
2026-05-05 21:12 44.70746 9.19289 14002 ft 314 kts 328°
2026-05-05 21:12 44.72659 9.17835 13974 ft 311 kts 326°
2026-05-05 21:12 44.74548 9.16361 13970 ft 310 kts 325°
2026-05-05 21:13 44.76427 9.14899 13970 ft 311 kts 325°
2026-05-05 21:13 44.78392 9.13593 13958 ft 318 kts 342°
2026-05-05 21:13 44.80630 9.13613 13987 ft 328 kts 13°
2026-05-05 21:13 44.82620 9.15145 13996 ft 336 kts 43°
2026-05-05 21:14 44.83898 9.17872 13995 ft 334 kts 73°
2026-05-05 21:14 44.84104 9.21036 13991 ft 327 kts 104°
2026-05-05 21:14 44.83380 9.24040 13996 ft 321 kts 117°
2026-05-05 21:14 44.82513 9.26927 13973 ft 319 kts 118°
2026-05-05 21:15 44.81234 9.29356 13982 ft 307 kts 144°
2026-05-05 21:15 44.79598 9.31244 13978 ft 306 kts 146°
2026-05-05 21:15 44.77937 9.33113 13971 ft 307 kts 146°
2026-05-05 21:15 44.76271 9.34982 13969 ft 307 kts 146°
2026-05-05 21:16 44.74609 9.36837 13970 ft 307 kts 146°
2026-05-05 21:16 44.72930 9.38709 13971 ft 307 kts 147°
2026-05-05 21:16 44.71145 9.40229 13976 ft 302 kts 154°
2026-05-05 21:16 44.69273 9.41558 13965 ft 295 kts 172°
2026-05-05 21:17 44.67302 9.41463 13995 ft 284 kts 202°
2026-05-05 21:17 44.65710 9.39907 13999 ft 279 kts 233°
2026-05-05 21:17 44.65003 9.37402 14000 ft 283 kts 263°
2026-05-05 21:17 44.65332 9.34652 14009 ft 291 kts 282°
2026-05-05 21:18 44.65747 9.31890 13986 ft 288 kts 276°
2026-05-05 21:18 44.66094 9.29151 13981 ft 288 kts 275°
2026-05-05 21:18 44.66445 9.26372 13978 ft 288 kts 275°
2026-05-05 21:18 44.67030 9.23690 13972 ft 297 kts 296°
2026-05-05 21:19 44.68572 9.21645 13999 ft 313 kts 327°
2026-05-05 21:19 44.70697 9.20918 14005 ft 326 kts 355°
2026-05-05 21:19 44.72944 9.20664 13983 ft 319 kts 336°
2026-05-05 21:19 44.74885 9.19332 14002 ft 312 kts 325°
2026-05-05 21:20 44.76792 9.17805 13979 ft 312 kts 325°
2026-05-05 21:20 44.78782 9.16641 13971 ft 321 kts 347°
2026-05-05 21:20 44.81026 9.16917 14001 ft 332 kts 17°
2026-05-05 21:20 44.82952 9.18668 14007 ft 335 kts 44°
2026-05-05 21:21 44.84778 9.20686 13984 ft 331 kts 21°
2026-05-05 21:21 44.86996 9.21298 13998 ft 322 kts 351°
2026-05-05 21:21 44.89052 9.20372 13996 ft 309 kts 321°
2026-05-05 21:21 44.90445 9.18212 13998 ft 295 kts 290°
2026-05-05 21:22 44.90848 9.15449 14002 ft 286 kts 268°
2026-05-05 21:22 44.90868 9.12647 13978 ft 286 kts 267°
2026-05-05 21:22 44.90882 9.09866 13970 ft 285 kts 267°
2026-05-05 21:22 44.90900 9.07076 13972 ft 287 kts 267°
2026-05-05 21:23 44.90919 9.04259 13963 ft 286 kts 267°
2026-05-05 21:23 44.90938 9.01479 13959 ft 286 kts 267°
2026-05-05 21:23 44.90955 8.98667 13954 ft 287 kts 267°
2026-05-05 21:23 44.91292 8.95876 13952 ft 297 kts 291°
2026-05-05 21:24 44.92613 8.93634 13980 ft 308 kts 316°
2026-05-05 21:24 44.94051 8.91519 13864 ft 289 kts 294°
2026-05-05 21:24 44.94722 8.88904 13210 ft 286 kts 285°
2026-05-05 21:24 44.95464 8.86293 12584 ft 289 kts 289°
2026-05-05 21:25 44.96273 8.83693 11958 ft 292 kts 297°
2026-05-05 21:25 44.97708 8.81698 11353 ft 302 kts 327°
2026-05-05 21:25 44.99467 8.80124 11008 ft 297 kts 316°
2026-05-05 21:25 45.01057 8.78215 10966 ft 296 kts 315°
2026-05-05 21:26 45.02605 8.76331 10953 ft 296 kts 315°
2026-05-05 21:26 45.04160 8.74442 10951 ft 296 kts 315°
2026-05-05 21:26 45.05722 8.72531 10944 ft 297 kts 315°
2026-05-05 21:26 45.07269 8.70622 10953 ft 297 kts 315°
2026-05-05 21:27 45.08812 8.68712 10959 ft 297 kts 315°
2026-05-05 21:27 45.10358 8.66794 10960 ft 297 kts 315°
2026-05-05 21:27 45.11905 8.64867 10941 ft 296 kts 315°
2026-05-05 21:27 45.13448 8.62946 10823 ft 286 kts 315°
2026-05-05 21:28 45.14927 8.61105 10332 ft 285 kts 315°
2026-05-05 21:28 45.16412 8.59245 9686 ft 289 kts 315°
2026-05-05 21:28 45.17900 8.57362 9084 ft 292 kts 315°
2026-05-05 21:28 45.19400 8.55442 8981 ft 291 kts 315°
2026-05-05 21:29 45.20910 8.53505 8962 ft 291 kts 315°
2026-05-05 21:29 45.22385 8.51594 8960 ft 290 kts 311°
2026-05-05 21:29 45.23351 8.49208 8783 ft 272 kts 280°
2026-05-05 21:29 45.23267 8.46645 8230 ft 265 kts 247°
2026-05-05 21:30 45.22090 8.44640 8032 ft 269 kts 210°
2026-05-05 21:30 45.20329 8.43984 7985 ft 271 kts 178°
2026-05-05 21:30 45.18471 8.44413 7989 ft 271 kts 170°
2026-05-05 21:30 45.16627 8.44957 7959 ft 270 kts 169°
2026-05-05 21:31 45.14775 8.45505 7959 ft 270 kts 169°
2026-05-05 21:31 45.12945 8.46045 7954 ft 270 kts 169°
2026-05-05 21:31 45.11198 8.46997 7958 ft 273 kts 144°
2026-05-05 21:31 45.10114 8.49087 7925 ft 258 kts 109°
2026-05-05 21:32 45.10126 8.51562 7957 ft 261 kts 72°
2026-05-05 21:32 45.11161 8.53589 7874 ft 252 kts 35°
2026-05-05 21:32 45.12826 8.54397 7555 ft 271 kts
2026-05-05 21:32 45.14805 8.54376 7292 ft 291 kts 355°
2026-05-05 21:33 45.16765 8.54002 6789 ft 278 kts 347°
2026-05-05 21:33 45.18605 8.53359 6350 ft 266 kts 343°
2026-05-05 21:33 45.20347 8.52842 6142 ft 248 kts 355°
2026-05-05 21:33 45.22048 8.52584 6067 ft 250 kts 352°
2026-05-05 21:34 45.23780 8.52217 6041 ft 250 kts 351°
2026-05-05 21:34 45.25501 8.51796 6033 ft 246 kts 350°
2026-05-05 21:34 45.27131 8.51372 6014 ft 230 kts 349°
2026-05-05 21:34 45.28662 8.50960 6010 ft 224 kts 349°
2026-05-05 21:35 45.30198 8.50540 6040 ft 226 kts 349°
2026-05-05 21:35 45.31755 8.50562 6039 ft 226 kts 24°
2026-05-05 21:35 45.32917 8.51968 6070 ft 223 kts 65°
2026-05-05 21:35 45.33350 8.54056 6069 ft 221 kts 80°
2026-05-05 21:36 45.33665 8.56173 6047 ft 221 kts 81°
2026-05-05 21:36 45.33974 8.58324 6044 ft 221 kts 81°
2026-05-05 21:36 45.34273 8.60448 6037 ft 221 kts 81°
2026-05-05 21:36 45.34570 8.62581 6034 ft 220 kts 81°
2026-05-05 21:37 45.34518 8.64699 6047 ft 215 kts 118°
2026-05-05 21:37 45.33509 8.66169 6071 ft 211 kts 159°
2026-05-05 21:37 45.32095 8.66732 6062 ft 211 kts 168°
2026-05-05 21:37 45.30658 8.67188 6037 ft 211 kts 168°
2026-05-05 21:38 45.29207 8.67623 6034 ft 212 kts 169°
2026-05-05 21:38 45.27774 8.68037 6041 ft 211 kts 169°
2026-05-05 21:38 45.26346 8.68440 6034 ft 211 kts 169°
2026-05-05 21:38 45.24898 8.68844 6035 ft 211 kts 169°
2026-05-05 21:39 45.23460 8.69242 6035 ft 211 kts 170°
2026-05-05 21:39 45.22011 8.69641 6033 ft 210 kts 170°
2026-05-05 21:39 45.20587 8.70033 6032 ft 210 kts 170°
2026-05-05 21:39 45.19165 8.70423 6030 ft 209 kts 170°
2026-05-05 21:40 45.17721 8.70820 6034 ft 209 kts 170°
2026-05-05 21:40 45.16298 8.71211 6032 ft 209 kts 170°
2026-05-05 21:40 45.14874 8.71602 6035 ft 209 kts 170°
2026-05-05 21:40 45.13436 8.71997 6033 ft 211 kts 170°
2026-05-05 21:41 45.12000 8.72391 6036 ft 209 kts 170°
2026-05-05 21:41 45.10567 8.72784 6029 ft 210 kts 170°
2026-05-05 21:41 45.09146 8.73172 6027 ft 209 kts 170°
2026-05-05 21:41 45.07708 8.73565 6030 ft 210 kts 170°
2026-05-05 21:42 45.06271 8.73958 6033 ft 210 kts 170°
2026-05-05 21:42 45.04803 8.74359 5594 ft 223 kts 170°
2026-05-05 21:42 45.03399 8.75214 5177 ft 226 kts 136°
2026-05-05 21:42 45.02740 8.77157 5025 ft 220 kts 94°
2026-05-05 21:43 45.02930 8.79289 5004 ft 217 kts 82°
2026-05-05 21:43 45.03202 8.81361 4913 ft 212 kts 82°
2026-05-05 21:43 45.03471 8.83386 4621 ft 211 kts 82°
2026-05-05 21:43 45.03746 8.85435 4251 ft 214 kts 81°
2026-05-05 21:44 45.04290 8.87382 4060 ft 218 kts 47°
2026-05-05 21:44 45.05625 8.88343 4068 ft 220 kts
2026-05-05 21:44 45.07139 8.88095 4066 ft 222 kts 349°
2026-05-05 21:44 45.08651 8.87691 4039 ft 221 kts 349°
2026-05-05 21:45 45.10156 8.87286 4034 ft 222 kts 349°
2026-05-05 21:45 45.11659 8.86880 4032 ft 221 kts 349°
2026-05-05 21:45 45.13173 8.86470 4031 ft 220 kts 349°
2026-05-05 21:45 45.14681 8.86061 4036 ft 221 kts 349°
2026-05-05 21:46 45.16200 8.85649 4041 ft 219 kts 349°
2026-05-05 21:46 45.17699 8.85243 4038 ft 219 kts 349°
2026-05-05 21:46 45.19199 8.84835 4035 ft 221 kts 349°
2026-05-05 21:46 45.20705 8.84426 4039 ft 220 kts 349°
2026-05-05 21:47 45.22195 8.84020 4035 ft 220 kts 349°
2026-05-05 21:47 45.23694 8.83612 4033 ft 219 kts 349°
2026-05-05 21:47 45.25196 8.83203 4029 ft 218 kts 349°
2026-05-05 21:47 45.26682 8.82798 4027 ft 220 kts 349°
2026-05-05 21:48 45.28177 8.82380 4026 ft 219 kts 348°
2026-05-05 21:48 45.29700 8.82112 4032 ft 218 kts 355°
2026-05-05 21:48 45.31206 8.81856 4048 ft 219 kts 353°
2026-05-05 21:48 45.32721 8.81536 4056 ft 219 kts 352°
2026-05-05 21:49 45.34218 8.81181 4064 ft 219 kts 351°
2026-05-05 21:49 45.35701 8.80807 4073 ft 218 kts 351°
2026-05-05 21:49 45.37207 8.80413 4082 ft 217 kts 350°
2026-05-05 21:49 45.38690 8.80018 4093 ft 217 kts 350°
2026-05-05 21:50 45.40185 8.79614 4102 ft 218 kts 350°
2026-05-05 21:50 45.41666 8.79211 4085 ft 211 kts 349°
2026-05-05 21:50 45.43042 8.78836 4025 ft 194 kts 349°
2026-05-05 21:50 45.44311 8.78488 4067 ft 182 kts 350°
2026-05-05 21:51 45.45576 8.78142 3914 ft 185 kts 350°
2026-05-05 21:51 45.46840 8.77796 3678 ft 185 kts 350°
2026-05-05 21:51 45.48091 8.77453 3435 ft 183 kts 350°
2026-05-05 21:51 45.49340 8.77111 3186 ft 182 kts 351°
2026-05-05 21:52 45.51756 8.76448 2758 ft 164 kts 350°
2026-05-05 21:52 45.52816 8.76154 2514 ft 144 kts 350°
2026-05-05 21:52 45.53736 8.75902 2282 ft 128 kts 350°
2026-05-05 21:53 45.54576 8.75673 2094 ft 119 kts 350°
2026-05-05 21:53 45.55386 8.75451 1952 ft 120 kts 349°
2026-05-05 21:53 45.56227 8.75220 1809 ft 124 kts 350°
2026-05-05 21:53 45.57078 8.74986 1642 ft 125 kts 349°
2026-05-05 21:54 45.57930 8.74752 1471 ft 125 kts 349°
2026-05-05 21:54 45.58776 8.74515 1294 ft 125 kts 349°
2026-05-05 21:54 45.59624 8.74279 1143 ft 121 kts 350°
2026-05-05 21:54 45.60450 8.74051 1004 ft 124 kts 349°
2026-05-05 21:55 45.61306 8.73818 831 ft 123 kts 349°
2026-05-05 21:55 45.62115 8.73599 709 ft 107 kts 349°
2026-05-05 21:55 45.62669 8.73449 717 ft 50 kts 349°
2026-05-05 21:55 45.62982 8.73360 723 ft 36 kts 344°
2026-05-05 21:56 45.63193 8.73185 730 ft 31 kts 315°
2026-05-05 21:56 45.63294 8.73000 732 ft 19 kts 304°
2026-05-05 21:56 45.63353 8.72876 736 ft 9 kts 304°
2026-05-05 21:56 45.63374 8.72831 737 ft 2 kts 304°
2026-05-05 21:57 45.63376 8.72828 737 ft 0 kts 304°
2026-05-05 21:57 45.63378 8.72822 737 ft 0 kts 304°
2026-05-05 21:57 45.63380 8.72817 737 ft 1 kts 300°
2026-05-05 21:57 45.63386 8.72802 737 ft 0 kts 296°
2026-05-05 21:58 45.63392 8.72781 738 ft 4 kts 291°
2026-05-05 21:58 45.63403 8.72732 738 ft 6 kts 283°
2026-05-05 21:58 45.63409 8.72652 740 ft 9 kts 269°
2026-05-05 21:58 45.63398 8.72540 741 ft 13 kts 259°
2026-05-05 21:59 45.63377 8.72387 743 ft 17 kts 260°
2026-05-05 21:59 45.63352 8.72201 746 ft 20 kts 260°
2026-05-05 21:59 45.63325 8.72004 749 ft 18 kts 259°
2026-05-05 21:59 45.63303 8.71840 749 ft 17 kts 259°
2026-05-05 22:00 45.63276 8.71685 748 ft 13 kts 226°
2026-05-05 22:00 45.63168 8.71689 746 ft 19 kts 169°
2026-05-05 22:00 45.63016 8.71730 743 ft 25 kts 169°
2026-05-05 22:00 45.62867 8.71772 743 ft 6 kts 169°
2026-05-05 22:01 45.62840 8.71811 743 ft 5 kts 85°
2026-05-05 22:01 45.62848 8.71866 742 ft 6 kts 81°
2026-05-05 22:01 45.62851 8.71891 742 ft 0 kts 79°
2026-05-05 22:01 45.62850 8.71879 742 ft 0 kts 79°
2026-05-05 22:02 45.62850 8.71882 742 ft 0 kts 79°